Regional Weather Roundup
Issued by NWS

Home | Current Version | Previous Version | Graphics & Text | Print | Product List | Glossary Off
Versions: 1 2 3 4 5 6 7 8 9 10 11 12 13 14 15 16 17 18 19 20 21 22 23 24 25 26 27 28 29 30 31 32 33 34 35 36 37 38 39 40 41 42 43 44 45 46 47 48 49 50

000
ASUS43 KLOT 181210
RWRIL

ILLINOIS REGIONAL WEATHER ROUNDUP
NATIONAL WEATHER SERVICE CHICAGO/ROMEOVILLE IL
600 AM CST THU DEC 18 2014

NOTE: "FAIR" INDICATES FEW OR NO CLOUDS BELOW 12,000 FEET WITH NO
SIGNIFICANT WEATHER AND/OR OBSTRUCTIONS TO VISIBILITY.

* THESE STATIONS ARE NOT UNDER NWS QUALITY CONTROL. THEY ALSO MAY NOT
  REPORT WEATHER SUCH AS PRECIPITATION OR FOG.

ILZ001-002-007-009-015-016-024-181300-
NORTHWEST ILLINOIS

CITY           SKY/WX    TMP DP  RH WIND       PRES   REMARKS
MOLINE         MOCLDY    20  16  84 CALM      30.30R
6HR MIN TEMP:  16; 6HR MAX TEMP:  20;

STERLING*      MOCLDY    18  14  86 CALM      30.28S
SAVANNA*       PTCLDY    16  14  90 CALM      30.29S
$$

ILZ003-004-008-010-011-017-018-181300-
NORTH CENTRAL ILLINOIS

CITY           SKY/WX    TMP DP  RH WIND       PRES   REMARKS
ROCKFORD       PTCLDY    19  13  77 NW3       30.30R
6HR MIN TEMP:  18; 6HR MAX TEMP:  23;

FREEPORT*      PTCLDY    15  12  89 CALM      30.29S
ROCHELLE*      CLOUDY    21  16  79 CALM      30.28S
DE KALB*       CLOUDY    20  16  82 E6        30.26F WCI  13
PERU*          PTCLDY    21  18  90 N3        30.29R
$$

ILZ005-006-012>014-019>023-181300-
NORTHEAST ILLINOIS

CITY           SKY/WX    TMP DP  RH WIND       PRES   REMARKS
CHICAGO-OHARE  PTCLDY    19  14  81 W5        30.27S WCI  12
6HR MIN TEMP:  19; 6HR MAX TEMP:  24;

CHICAGO-MIDWAY CLOUDY    25  16  68 W6        30.27S WCI  18
6HR MIN TEMP:  25; 6HR MAX TEMP:  27;

AURORA         CLOUDY    24  15  68 CALM      30.27F
6HR MIN TEMP:  22; 6HR MAX TEMP:  24;

LANSING*       CLOUDY    25  18  74 SW7       30.28S WCI  17
JOLIET*        CLOUDY    23  16  74 CALM      30.28F
WAUKEGAN       CLEAR     17  12  80 W3        30.25S
6HR MIN TEMP:  16; 6HR MAX TEMP:  20;

DUPAGE AIRPORT CLOUDY    22  15  75 NW3       30.26S
6HR MIN TEMP:  21; 6HR MAX TEMP:  24;

KANKAKEE*      CLOUDY    23  18  82 CALM      30.29R
WHEELING       PTCLDY    20  14  77 W5        30.29S WCI  13
6HR MIN TEMP:  20; 6HR MAX TEMP:  24;

MORRIS*        MOCLDY    21  19  91 CALM      30.27F
ROMEOVILLE*    CLOUDY    23  16  75 CALM      30.27F
NORTHERLY ISL    N/A     25  17  72 W7          N/A  WCI  17
$$

LMZ740>746-181300-
SOUTHERN LAKE MICHIGAN

STATION/POSITION SKY/WX   TEMP    WIND        PRES    VSBY  WAVE
                          AIR SEA DIR/SP/G                  HT/PER
                          (F)     (DEG/KT/KT) (MB)    (MI)  (FT/S)
WAUKEGAN HARBOR            20     300/  3/  9   N/A
HARRISON CRIB              23     280/  8/ 10   N/A
BURNHAM HARBOR             25     270/  6/  8   N/A
CALUMET HARBOR             25     210/  3/  4 1023.9F
$$

ILZ025>027-034>036-040-047-049-050-058-095>099-181300-
WEST-CENTRAL ILLINOIS

CITY           SKY/WX    TMP DP  RH WIND       PRES   REMARKS
QUINCY         CLOUDY    26  20  77 NE3       30.28R
GALESBURG*     CLOUDY    19  18  94 CALM      30.29R
MACOMB*        CLOUDY    22  19  91 CALM      30.31R
JACKSONVILLE*  CLOUDY    28  23  81 CALM      30.30R
PITTSFIELD*    LGT SNOW  27  24  86 CALM      30.30R VSB 1
$$

ILZ028>032-037-038-041>044-048-051>054-059>061-181300-
CENTRAL ILLINOIS

CITY           SKY/WX    TMP DP  RH WIND       PRES   REMARKS
PONTIAC        PTCLDY    18  16  93 CALM      30.30R
BLOOMINGTON    MOCLDY    22  19  88 CALM      30.28R
DECATUR        CLOUDY    25  20  81 CALM      30.28S
PEORIA         PTCLDY    19  14  81 CALM      30.30R
6HR MIN TEMP:  19; 6HR MAX TEMP:  22;

LACON*         PTCLDY    15  13  90 CALM      30.29R
LINCOLN*       CLOUDY    24  22  92 CALM      30.30F
SPRINGFIELD    CLOUDY    26  22  84 CALM      30.30R
6HR MIN TEMP:  20; 6HR MAX TEMP:  26;

TAYLORVILLE    CLOUDY    27  21  80 CALM      30.29S
$$

ILZ033-039-045-046-055>057-062-063-181300-
EAST-CENTRAL ILLINOIS

CITY           SKY/WX    TMP DP  RH WIND       PRES   REMARKS
CHAMPAIGN      CLOUDY    26  19  74 CALM      30.28R
DANVILLE*      CLOUDY    24  19  83 CALM      30.26R
RANTOUL*       CLOUDY    23  19  87 CALM      30.28R
MATTOON        CLOUDY    25  18  74 CALM      30.28R
PARIS*         CLOUDY    26  22  83 CALM      30.29S
$$

ILZ079-100>102-181300-
SOUTHWEST ILLINOIS

CITY           SKY/WX    TMP DP  RH WIND       PRES   REMARKS
BELLEVILLE     CLOUDY    29  27  90 NE2       30.28R
CAHOKIA*       CLOUDY    31  25  78 CALM      30.29R
SPARTA*        CLOUDY    31  27  87 CALM      30.27S
$$

ILZ064>066-069>071-074>076-080>082-084>086-088>090-092>094-181300-
SOUTH-CENTRAL ILLINOIS

CITY           SKY/WX    TMP DP  RH WIND       PRES   REMARKS
CARBONDALE     LGT SNOW  31  27  85 E3        30.27S FOG
6HR MIN TEMP:  31; 6HR MAX TEMP:  33; 6HR PCP:  0.01;

CAIRO*         CLOUDY    36  35  97 NE5       30.25F FOG     WCI  32
EFFINGHAM*     CLOUDY    26  20  77 CALM      30.30S
MARION         LGT SNOW  32  28  86 CALM      30.28S
MT. VERNON     CLOUDY    28  21  74 E5        30.28S WCI  23
CENTRALIA*     CLOUDY    28  24  85 NE3       30.28R
SALEM*         CLOUDY    29  25  84 CALM      30.28S
METROPOLIS*    CLOUDY    33  33 100 CALM      30.27R FOG
$$

ILZ067-068-072-073-078-083-087-091-181300-
SOUTHEAST ILLINOIS

CITY           SKY/WX    TMP DP  RH WIND       PRES   REMARKS
LAWRENCEVILLE  CLOUDY    26  21  81 N3        30.30S
FLORA*         CLOUDY    27  23  85 NE3       30.29F
FAIRFIELD*     CLOUDY    28  25  87 NE3       30.28R
HARRISBURG*    CLOUDY    31  27  85 CALM      30.30R
ROBINSON*      CLOUDY    26  22  83 E3        30.31S
CARMI*         CLOUDY    31  29  90 NE5       30.27S WCI  26
$$

ABBREVIATIONS USED IN REMARKS
   TC - TEMPERATURE IN CELSIUS
  WCI - WIND CHILL INDEX
   HX - HEAT INDEX
  VSB - VISIBILITY
$$




USA.gov is the U.S. government's official web portal to all federal, state and local government web resources and services.